| time (UTC) | temp C | wind direction | speed KPH | gust KPH | rain 1hr cm | rain 24hr cm | rain mn cm | humidity % | barometer mb |
| 20260505223012 | 3 | 326 | 0.0 | 6.4 | 0.00 | 0.00 | 0.00 | 67 | 1011.8 |
| 20260505221509 | 3 | 317 | 0.0 | 3.2 | 0.00 | 0.00 | 0.00 | 71 | 1011.7 |
| 20260505220006 | 4 | 324 | 0.0 | 0.0 | 0.00 | 0.00 | 0.00 | 72 | 1011.8 |
| 20260505214505 | 5 | 325 | 0.0 | 4.8 | 0.00 | 0.00 | 0.00 | 71 | 1011.7 |
| 20260505213007 | 5 | 326 | 0.0 | 0.0 | 0.00 | 0.00 | 0.00 | 70 | 1011.5 |
| 20260505211503 | 5 | 322 | 0.0 | 4.8 | 0.00 | 0.00 | 0.00 | 71 | 1011.4 |
| 20260505210002 | 5 | 295 | 0.0 | 0.0 | 0.00 | 0.00 | 0.00 | 73 | 1011.3 |
| 20260505204613 | 6 | 295 | 0.0 | 0.0 | 0.00 | 0.00 | 0.00 | 76 | 1011.1 |
| 20260505203059 | 6 | 266 | 1.6 | 3.2 | 0.00 | 0.00 | 0.00 | 81 | 1011.0 |
| 20260505201557 | 6 | 226 | 0.0 | 3.2 | 0.00 | 0.00 | 0.00 | 81 | 1010.9 |
| 20260505200056 | 7 | 219 | 0.0 | 3.2 | 0.00 | 0.00 | 0.00 | 79 | 1010.9 |
| 20260505194556 | 7 | 216 | 0.0 | 6.4 | 0.00 | 0.00 | 0.00 | 78 | 1010.9 |
| 20260505193053 | 7 | 210 | 3.2 | 9.7 | 0.00 | 0.00 | 0.00 | 77 | 1010.8 |
| 20260505191557 | 8 | 214 | 3.2 | 6.4 | 0.00 | 0.00 | 0.00 | 75 | 1010.7 |
| 20260505190052 | 8 | 235 | 1.6 | 12.9 | 0.00 | 0.00 | 0.00 | 74 | 1010.6 |
| 20260505184550 | 8 | 224 | 4.8 | 12.9 | 0.00 | 0.00 | 0.00 | 74 | 1010.6 |
| 20260505183047 | 8 | 225 | 4.8 | 11.3 | 0.00 | 0.00 | 0.00 | 72 | 1010.5 |
| 20260505181611 | 8 | 224 | 6.4 | 16.1 | 0.00 | 0.00 | 0.00 | 72 | 1010.5 |
| 20260505180101 | 8 | 210 | 8.0 | 16.1 | 0.00 | 0.00 | 0.00 | 71 | 1010.4 |
| 20260505174546 | 8 | 210 | 4.8 | 16.1 | 0.00 | 0.00 | 0.00 | 70 | 1010.4 |
| 20260505173044 | 8 | 221 | 8.0 | 17.7 | 0.00 | 0.00 | 0.00 | 67 | 1010.4 |
| 20260505171544 | 8 | 225 | 3.2 | 14.5 | 0.00 | 0.00 | 0.00 | 66 | 1010.4 |
| 20260505170042 | 8 | 222 | 8.0 | 17.7 | 0.00 | 0.00 | 0.00 | 64 | 1010.4 |
| 20260505164541 | 8 | 216 | 6.4 | 19.3 | 0.00 | 0.00 | 0.00 | 63 | 1010.3 |
| 20260505163041 | 10 | 214 | 12.9 | 20.9 | 0.00 | 0.00 | 0.00 | 58 | 1010.3 |
| 20260505161539 | 10 | 235 | 8.0 | 27.4 | 0.00 | 0.00 | 0.00 | 50 | 1010.3 |
| 20260505153043 | 10 | 268 | 8.0 | 25.7 | 0.00 | 0.00 | 0.00 | 56 | 1010.2 |
| 20260505151536 | 10 | 210 | 9.7 | 30.6 | 0.00 | 0.00 | 0.00 | 55 | 1010.1 |
| 20260505124530 | 13 | 189 | 12.9 | 27.4 | 0.00 | 0.00 | 0.00 | 43 | 1009.6 |
| 20260505123043 | 13 | 286 | 4.8 | 16.1 | 0.00 | 0.00 | 0.00 | 36 | 1009.6 |
| 20260505121526 | 11 | 42 | 0.0 | 11.3 | 0.00 | 0.00 | 0.00 | 35 | 1009.8 |
| 20260505120025 | 11 | 47 | 6.4 | 14.5 | 0.00 | 0.00 | 0.00 | 30 | 1009.6 |
| 20260505114523 | 11 | 33 | 6.4 | 20.9 | 0.00 | 0.00 | 0.00 | 42 | 1009.7 |
| 20260505113022 | 10 | 60 | 8.0 | 27.4 | 0.00 | 0.00 | 0.00 | 44 | 1009.9 |
| 20260505111531 | 11 | 139 | 8.0 | 20.9 | 0.00 | 0.00 | 0.00 | 39 | 1009.9 |
| 20260505101518 | 12 | 285 | 0.0 | 8.0 | 0.00 | 0.00 | 0.00 | 40 | 1010.2 |
| 20260505100015 | 10 | 318 | 0.0 | 11.3 | 0.00 | 0.00 | 0.00 | 32 | 1010.3 |
| 20260505094515 | 10 | 287 | 1.6 | 11.3 | 0.00 | 0.00 | 0.00 | 32 | 1010.4 |
| 20260505093012 | 10 | 54 | 0.0 | 8.0 | 0.00 | 0.00 | 0.00 | 39 | 1010.3 |
| 20260505091510 | 10 | 316 | 1.6 | 9.7 | 0.00 | 0.00 | 0.00 | 37 | 1010.4 |
| 20260505090009 | 10 | 293 | 3.2 | 16.1 | 0.00 | 0.00 | 0.00 | 39 | 1010.4 |
| 20260505084507 | 9 | 50 | 1.6 | 9.7 | 0.00 | 0.00 | 0.00 | 36 | 1010.4 |
| 20260505083005 | 9 | 40 | 0.0 | 12.9 | 0.00 | 0.00 | 0.00 | 40 | 1010.3 |
| 20260505081504 | 9 | 44 | 1.6 | 11.3 | 0.00 | 0.00 | 0.00 | 39 | 1010.4 |
| 20260505080002 | 8 | 296 | 0.0 | 19.3 | 0.00 | 0.00 | 0.00 | 42 | 1010.3 |
| 20260505074559 | 8 | 331 | 3.2 | 12.9 | 0.00 | 0.00 | 0.00 | 39 | 1010.2 |
| 20260505073101 | 8 | 48 | 1.6 | 17.7 | 0.00 | 0.00 | 0.00 | 41 | 1010.2 |
| 20260505071555 | 7 | 336 | 3.2 | 16.1 | 0.00 | 0.00 | 0.00 | 43 | 1010.1 |
| 20260505070100 | 7 | 24 | 4.8 | 11.3 | 0.00 | 0.00 | 0.00 | 44 | 1010.0 |
| 20260505064631 | 7 | 307 | 4.8 | 16.1 | 0.00 | 0.00 | 0.00 | 46 | 1009.8 |
| 20260505063052 | 7 | 315 | 0.0 | 8.0 | 0.00 | 0.00 | 0.00 | 48 | 1009.9 |
| 20260505061551 | 6 | 341 | 0.0 | 16.1 | 0.00 | 0.00 | 0.00 | 49 | 1010.1 |
| 20260505060049 | 6 | 49 | 1.6 | 14.5 | 0.00 | 0.00 | 0.00 | 50 | 1010.0 |
| 20260505054551 | 6 | 27 | 4.8 | 16.1 | 0.00 | 0.00 | 0.00 | 50 | 1010.0 |
| 20260505053047 | 6 | 308 | 4.8 | 17.7 | 0.00 | 0.00 | 0.00 | 52 | 1010.0 |
| 20260505051545 | 5 | 254 | 0.0 | 11.3 | 0.00 | 0.00 | 0.00 | 54 | 1009.9 |
| 20260505041541 | 3 | 297 | 3.2 | 12.9 | 0.00 | 0.00 | 0.00 | 61 | 1009.7 |
| 20260505040039 | 3 | 284 | 1.6 | 8.0 | 0.00 | 0.00 | 0.00 | 62 | 1009.6 |
| 20260505034545 | 2 | 317 | 1.6 | 6.4 | 0.00 | 0.00 | 0.00 | 63 | 1009.5 |
| 20260505033036 | 2 | 303 | 0.0 | 9.7 | 0.00 | 0.00 | 0.00 | 62 | 1009.4 |
| 20260505031534 | 3 | 316 | 1.6 | 6.4 | 0.00 | 0.00 | 0.00 | 61 | 1009.4 |
| 20260505030044 | 3 | 312 | 1.6 | 8.0 | 0.00 | 0.00 | 0.00 | 60 | 1009.3 |
| 20260505024532 | 3 | 296 | 0.0 | 11.3 | 0.00 | 0.00 | 0.00 | 59 | 1009.2 |
| 20260505023039 | 3 | 281 | 3.2 | 11.3 | 0.00 | 0.00 | 0.00 | 61 | 1009.2 |
| 20260505021532 | 3 | 289 | 1.6 | 9.7 | 0.00 | 0.00 | 0.00 | 62 | 1009.3 |
| 20260505020029 | 3 | 293 | 3.2 | 9.7 | 0.00 | 0.00 | 0.00 | 62 | 1009.2 |
| 20260505014535 | 3 | 293 | 3.2 | 6.4 | 0.00 | 0.00 | 0.00 | 61 | 1009.1 |
| 20260505013025 | 3 | 291 | 1.6 | 4.8 | 0.00 | 0.00 | 0.00 | 62 | 1008.9 |
| 20260505011524 | 3 | 288 | 3.2 | 6.4 | 0.00 | 0.00 | 0.00 | 60 | 1008.9 |
| 20260505010020 | 3 | 334 | 0.0 | 0.0 | 0.00 | 0.00 | 0.00 | 61 | 1008.8 |
| 20260505004530 | 3 | 333 | 0.0 | 0.0 | 0.00 | 0.00 | 0.00 | 62 | 1008.7 |
| 20260505003015 | 4 | 333 | 0.0 | 12.9 | 0.00 | 0.00 | 0.00 | 62 | 1008.5 |
| 20260505001514 | 4 | 297 | 0.0 | 0.0 | 0.00 | 0.00 | 0.00 | 63 | 1008.3 |
| 20260505000014 | 5 | 297 | 0.0 | 3.2 | 0.00 | 0.00 | 0.00 | 59 | 1008.1 |
| 20260504234507 | 5 | 293 | 0.0 | 6.4 | 0.00 | 0.00 | 0.00 | 58 | 1007.9 |
| 20260504233003 | 6 | 308 | 1.6 | 4.8 | 0.00 | 0.00 | 0.00 | 57 | 1007.8 |
| 20260504231625 | 6 | 314 | 0.0 | 9.7 | 0.00 | 0.00 | 0.00 | 54 | 1007.8 |
| 20260504230057 | 7 | 331 | 6.4 | 12.9 | 0.00 | 0.00 | 0.00 | 53 | 1007.6 |
| 20260504224553 | 7 | 310 | 4.8 | 14.5 | 0.00 | 0.00 | 0.00 | 53 | 1007.6 |